FW0765 Weather Reports


Display with metric or nautical units.
time (UTC)temp
F
wind
direction
speed
MPH
gust
MPH
rain 1hr
in
rain 24hr
in
rain mn
in
humidity
%
barometer
mb
20260510154530 81 207 4.0 10.0 0.00 0.00 0.00 68 1010.3
20260510153025 80 229 5.0 10.0 0.00 0.00 0.00 71 1010.4
20260510151529 78 186 6.0 20.0 0.00 0.00 0.00 74 1009.8
20260510150018 77 192 8.0 18.0 0.00 0.00 0.00 76 1009.1
20260510144517 76 218 9.0 16.0 0.00 0.00 0.00 78 1009.0
20260510143013 75 221 9.0 21.0 0.00 0.00 0.00 79 1009.1
20260510141512 75 204 7.0 19.0 0.00 0.00 0.00 81 1009.0
20260510140008 74 207 13.0 18.0 0.00 0.00 0.00 81 1009.0
20260510134505 73 193 6.0 14.0 0.00 0.00 0.00 83 1008.9
20260510133004 72 207 9.0 21.0 0.00 0.00 0.00 84 1008.9
20260510131502 71 201 7.0 17.0 0.00 0.00 0.00 84 1009.0
20260510124606 70 194 6.0 12.0 0.00 0.00 0.00 85 1008.7
20260510123101 69 234 5.0 16.0 0.00 0.00 0.00 85 1008.5
20260510121557 69 200 6.0 11.0 0.00 0.00 0.00 85 1008.4
20260510120057 69 200 5.0 14.0 0.00 0.00 0.00 85 1008.3
20260510114559 69 234 6.0 15.0 0.00 0.00 0.00 85 1008.2
20260510113055 68 202 4.0 10.0 0.00 0.00 0.00 84 1008.2
20260510111604 68 196 5.0 12.0 0.00 0.00 0.00 84 1008.1
20260510110054 69 223 5.0 14.0 0.00 0.00 0.00 83 1008.1
20260510104557 69 225 5.0 11.0 0.00 0.00 0.00 83 1007.9
20260510103102 69 191 6.0 12.0 0.00 0.00 0.00 82 1007.8
20260510101558 70 207 6.0 12.0 0.00 0.00 0.00 81 1007.7
20260510100053 70 234 5.0 12.0 0.00 0.00 0.00 80 1007.8
20260510094605 71 191 4.0 10.0 0.00 0.00 0.00 79 1007.7
20260510093111 71 242 4.0 14.0 0.00 0.00 0.00 78 1007.4
20260510091551 71 196 3.0 11.0 0.00 0.00 0.00 78 1007.4
20260510090051 71 200 5.0 10.0 0.00 0.00 0.00 79 1007.4
20260510084550 71 185 4.0 11.0 0.00 0.00 0.00 79 1007.4
20260510083101 71 171 5.0 10.0 0.00 0.00 0.00 78 1007.5
20260510081548 71 217 5.0 11.0 0.00 0.00 0.00 77 1007.6
20260510080056 72 202 4.0 10.0 0.00 0.00 0.00 76 1007.6
20260510074548 72 220 5.0 10.0 0.00 0.00 0.00 75 1007.6
20260510073052 72 195 6.0 13.0 0.00 0.00 0.00 75 1007.7
20260510071541 69 202 4.0 8.0 0.00 0.00 0.00 80 1008.0
20260510070039 66 192 2.0 4.0 0.00 0.00 0.00 84 1008.0
20260510064534 66 186 1.0 3.0 0.00 0.00 0.00 83 1008.1
20260510063033 67 186 1.0 3.0 0.00 0.00 0.00 82 1008.3
20260510061534 67 186 2.0 5.0 0.00 0.00 0.00 83 1008.4
20260510060039 67 186 2.0 4.0 0.00 0.00 0.00 83 1008.4
20260510054535 67 186 1.0 4.0 0.00 0.00 0.00 84 1008.5
20260510053026 67 186 1.0 3.0 0.00 0.00 0.00 84 1008.6
20260510051525 67 186 2.0 3.0 0.00 0.00 0.00 84 1008.6
20260510050021 68 186 2.0 4.0 0.00 0.00 0.00 83 1008.6
20260510044524 68 186 2.0 4.0 0.00 0.00 0.00 82 1008.7
20260510043026 69 186 2.0 4.0 0.00 0.00 0.00 81 1008.7
20260510041521 70 186 2.0 4.0 0.00 0.00 0.00 81 1008.8
20260510040020 70 186 1.0 6.0 0.00 0.00 0.00 80 1008.6
20260510034523 70 188 3.0 6.0 0.00 0.00 0.00 80 1008.6
20260510033018 71 167 2.0 4.0 0.00 0.00 0.00 79 1008.4
20260510031518 72 167 1.0 3.0 0.00 0.00 0.00 77 1008.3
20260510030019 73 167 2.0 5.0 0.00 0.00 0.00 75 1008.0
20260510024516 74 164 2.0 5.0 0.00 0.00 0.00 72 1007.9
20260510023016 75 163 2.0 5.0 0.00 0.00 0.00 69 1007.7
20260510021515 77 161 1.0 5.0 0.00 0.00 0.00 66 1007.7
20260510020015 78 157 2.0 5.0 0.00 0.00 0.00 62 1007.4
20260510014514 80 185 1.0 2.0 0.00 0.00 0.00 58 1007.2
20260510013015 82 185 0.0 2.0 0.00 0.00 0.00 55 1007.1
20260510011514 84 185 1.0 4.0 0.00 0.00 0.00 52 1006.9
20260510010013 85 171 1.0 5.0 0.00 0.00 0.00 48 1006.8
20260510004513 87 181 2.0 6.0 0.00 0.00 0.00 44 1006.7
20260510003022 87 192 2.0 5.0 0.00 0.00 0.00 44 1006.6
20260510001511 88 225 1.0 9.0 0.00 0.00 0.00 43 1006.6
20260510000011 88 211 4.0 8.0 0.00 0.00 0.00 43 1006.5
20260509234516 88 161 3.0 7.0 0.00 0.00 0.00 43 1006.4
20260509233009 88 184 2.0 7.0 0.00 0.00 0.00 43 1006.6
20260509231512 88 181 3.0 9.0 0.00 0.00 0.00 42 1006.7
20260509230007 88 196 5.0 10.0 0.00 0.00 0.00 47 1006.7
20260509224506 88 220 6.0 12.0 0.00 0.00 0.00 45 1006.8
20260509223005 88 227 4.0 8.0 0.00 0.00 0.00 44 1006.7
20260509221504 88 241 5.0 8.0 0.00 0.00 0.00 49 1007.0
20260509220003 88 213 5.0 9.0 0.00 0.00 0.00 50 1007.1
20260509214604 87 215 6.0 10.0 0.00 0.00 0.00 49 1007.4
20260509213126 87 219 5.0 10.0 0.00 0.00 0.00 46 1007.5
20260509211554 87 232 3.0 10.0 0.00 0.00 0.00 51 1007.7
20260509204548 86 243 4.0 10.0 0.00 0.00 0.00 55 1008.2
20260509203045 85 211 6.0 11.0 0.00 0.00 0.00 55 1008.5
20260509201543 85 185 6.0 12.0 0.00 0.00 0.00 57 1008.7
20260509200040 84 272 4.0 12.0 0.00 0.00 0.00 57 1008.9
20260509194538 84 271 7.0 14.0 0.00 0.00 0.00 59 1009.1
20260509193041 84 217 4.0 8.0 0.00 0.00 0.00 60 1009.3
20260509191539 83 222 7.0 12.0 0.00 0.00 0.00 62 1009.5
20260509190032 82 201 5.0 11.0 0.00 0.00 0.00 62 1009.7
20260509184533 82 200 7.0 14.0 0.00 0.00 0.00 63 1009.9
20260509183031 82 241 4.0 11.0 0.00 0.00 0.00 64 1010.1
20260509181525 80 200 5.0 11.0 0.00 0.00 0.00 65 1010.3
20260509180023 80 220 7.0 11.0 0.00 0.00 0.00 68 1010.8
20260509174520 79 185 4.0 9.0 0.00 0.00 0.00 71 1010.9
20260509173019 78 217 2.0 10.0 0.00 0.00 0.00 76 1011.1
20260509171513 77 265 2.0 7.0 0.00 0.00 0.00 79 1011.2
20260509170013 75 202 3.0 7.0 0.00 0.00 0.00 82 1011.1
20260509164504 73 226 3.0 8.0 0.00 0.00 0.00 86 1011.3
20260509163100 71 215 5.0 10.0 0.00 0.00 0.00 89 1011.4
20260509161557 69 206 6.0 10.0 0.00 0.00 0.00 92 1011.4
20260509160051 67 195 6.0 12.0 0.00 0.00 0.00 95 1011.4